{"data":{"norad_id":67107,"intl_designator":"2025-299F","name":"STARLINK-36196","alt_names":[],"object_type":"PAYLOAD","status":"ACTIVE","operator":null,"country":"US","launch_date":"2025-12-15","launch_site_code":"AFETR","launch_vehicle":null,"mission":null,"orbit_class":"UNKNOWN","rcs_meters":null,"size_class":null,"mass_kg":null,"dimensions":null,"purposes":["comms"],"wikipedia_slug":null,"has_3d_model":false,"image_url":null,"decayed_at":null,"tle_current":{"epoch":"2026-09-20T23:42:09.904032Z","epoch_age_seconds":36940,"freshness":"FRESH","line1":"1 67107U 25299F   26263.98761463  .00014154  00000+0  52267-3 0  9990","line2":"2 67107  43.0022 146.1304 0000248  41.9599 318.1271 15.27593472 42985","mean_motion":15.27593472,"eccentricity":2.48e-5,"inclination_deg":43.0022,"raan_deg":146.1304,"arg_perigee_deg":41.9599,"mean_anomaly_deg":318.1271,"bstar":0.00052267,"rev_number":4298,"period_min":94.265917365743,"perigee_km":482.83859990684,"apogee_km":483.17891273635,"semimajor_km":6861.1457563216,"source":"CELESTRAK","updated_at":"2026-09-21T09:00:36.104473Z"}}}